When you browse on this site, cookies collect data to enhance your experience and personalize the content and advertising you see.
Visit our Privacy Policy to learn more. By continuing to use the site, you agree to this use of cookies and data.
  • In United Kingdom
  • List of Countries
  • For 7 days
  • Water Temperature
  • Weather Map
  • Weather Widgets
  • user-avatar
    Login

    Hourly Weather Winchester

    Today, 1 June, Monday

    Time Temperature Precipitation Wind Pressure Humidity
    00:00 +9°C° 0 mm 5 mps 761 mmHg 77%
    01:00 +10°C° 0 mm 4 mps 761 mmHg 81%
    02:00 +10°C° 0 mm 4 mps 761 mmHg 86%
    03:00 +8°C° 0 mm 4 mps 760 mmHg 91%
    04:00 +10°C° 0 mm 4 mps 761 mmHg 89%
    05:00 +10°C° 0 mm 5 mps 761 mmHg 88%
    06:00 +12°C° 0 mm 5 mps 761 mmHg 84%
    07:00 +14°C° 0 mm 5 mps 761 mmHg 77%
    08:00 +16°C° 0 mm 5 mps 761 mmHg 71%
    09:00 +19°C° 0 mm 5 mps 761 mmHg 64%
    10:00 +20°C° 0 mm 5 mps 761 mmHg 62%
    11:00 +21°C° 0 mm 5 mps 761 mmHg 60%
    12:00 +22°C° 0 mm 5 mps 761 mmHg 57%
    13:00 +22°C° 0 mm 4 mps 761 mmHg 56%
    14:00 +23°C° 0 mm 4 mps 761 mmHg 56%
    15:00 +23°C° 0 mm 4 mps 761 mmHg 55%
    16:00 +22°C° 0 mm 3 mps 760 mmHg 59%
    17:00 +22°C° 0 mm 3 mps 760 mmHg 63%
    18:00 +21°C° 0 mm 2 mps 760 mmHg 67%
    19:00 +19°C° 0 mm 2 mps 760 mmHg 73%
    20:00 +17°C° 0 mm 2 mps 761 mmHg 78%
    21:00 +15°C° 0 mm 2 mps 761 mmHg 83%
    22:00 +14°C° 0 mm 2 mps 761 mmHg 85%
    23:00 +12°C° 0 mm 3 mps 761 mmHg 87%

    Tomorrow, 2 June, Tuesday

    Time Temperature Precipitation Wind Pressure Humidity
    00:00 +12°C° 0 mm 3 mps 761 mmHg 89%
    01:00 +11°C° 0 mm 3 mps 761 mmHg 88%
    02:00 +11°C° 0 mm 3 mps 761 mmHg 87%
    03:00 +10°C° 0 mm 3 mps 760 mmHg 86%
    04:00 +11°C° 0 mm 3 mps 760 mmHg 83%
    05:00 +11°C° 0 mm 4 mps 760 mmHg 80%
    06:00 +12°C° 0 mm 4 mps 760 mmHg 77%
    07:00 +14°C° 0 mm 4 mps 760 mmHg 73%
    08:00 +15°C° 0 mm 4 mps 760 mmHg 68%
    09:00 +18°C° 0 mm 4 mps 760 mmHg 64%
    10:00 +19°C° 0 mm 3 mps 760 mmHg 60%
    11:00 +21°C° 0 mm 3 mps 760 mmHg 57%
    12:00 +23°C° 0 mm 2 mps 759 mmHg 54%
    13:00 +23°C° 0 mm 2 mps 759 mmHg 55%
    14:00 +23°C° 0 mm 2 mps 758 mmHg 56%
    15:00 +23°C° 0 mm 2 mps 758 mmHg 56%
    16:00 +22°C° 0 mm 3 mps 758 mmHg 60%
    17:00 +21°C° 0 mm 3 mps 757 mmHg 65%
    18:00 +20°C° 0 mm 3 mps 757 mmHg 69%
    19:00 +18°C° 0 mm 3 mps 756 mmHg 74%
    20:00 +16°C° 0 mm 2 mps 756 mmHg 79%
    21:00 +14°C° 0 mm 2 mps 756 mmHg 84%
    22:00 +14°C° 0 mm 2 mps 756 mmHg 84%
    23:00 +13°C° 0 mm 2 mps 755 mmHg 85%

    Day after tomorrow, 3 June, Wednesday

    Time Temperature Precipitation Wind Pressure Humidity
    00:00 +13°C° 0 mm 2 mps 755 mmHg 85%
    01:00 +13°C° 0 mm 2 mps 754 mmHg 83%
    02:00 +13°C° 0 mm 2 mps 754 mmHg 82%
    03:00 +13°C° 0 mm 2 mps 753 mmHg 80%
    04:00 +13°C° 0 mm 2 mps 752 mmHg 79%
    05:00 +14°C° 0 mm 2 mps 752 mmHg 77%
    06:00 +15°C° 0 mm 2 mps 752 mmHg 76%
    07:00 +14°C° 0 mm 3 mps 751 mmHg 75%
    08:00 +16°C° 0 mm 3 mps 751 mmHg 73%
    09:00 +15°C° 0 mm 4 mps 751 mmHg 72%
    10:00 +17°C° 0.1 mm 4 mps 751 mmHg 73%
    11:00 +17°C° 0.1 mm 4 mps 751 mmHg 74%
    12:00 +16°C° 0.1 mm 5 mps 750 mmHg 76%
    13:00 +16°C° 0.4 mm 5 mps 750 mmHg 76%
    14:00 +16°C° 0.4 mm 5 mps 750 mmHg 77%
    15:00 +16°C° 0.4 mm 6 mps 750 mmHg 78%
    16:00 +15°C° 0.1 mm 6 mps 750 mmHg 78%
    17:00 +15°C° 0.1 mm 6 mps 750 mmHg 77%
    18:00 +14°C° 0.1 mm 7 mps 749 mmHg 76%
    19:00 +12°C° 0 mm 7 mps 750 mmHg 77%
    20:00 +13°C° 0 mm 6 mps 750 mmHg 78%
    21:00 +11°C° 0 mm 6 mps 750 mmHg 79%
    22:00 +11°C° 0 mm 6 mps 750 mmHg 78%
    23:00 +10°C° 0 mm 6 mps 750 mmHg 78%

    4 June, Thursday

    Time Temperature Precipitation Wind Pressure Humidity
    00:00 +10°C° 0 mm 6 mps 750 mmHg 78%
    01:00 +9°C° 0 mm 6 mps 750 mmHg 84%
    02:00 +8°C° 0 mm 6 mps 749 mmHg 89%
    03:00 +7°C° 0 mm 6 mps 749 mmHg 94%
    04:00 +8°C° 0 mm 6 mps 749 mmHg 90%
    05:00 +9°C° 0 mm 6 mps 749 mmHg 85%
    06:00 +10°C° 0 mm 6 mps 749 mmHg 80%
    07:00 +11°C° 0 mm 6 mps 749 mmHg 76%
    08:00 +11°C° 0 mm 6 mps 749 mmHg 71%
    09:00 +13°C° 0 mm 6 mps 749 mmHg 67%
    10:00 +14°C° 0 mm 6 mps 749 mmHg 64%
    11:00 +14°C° 0 mm 6 mps 749 mmHg 61%
    12:00 +14°C° 0 mm 6 mps 749 mmHg 58%
    13:00 +14°C° 0.1 mm 5 mps 749 mmHg 61%
    14:00 +14°C° 0.1 mm 5 mps 749 mmHg 65%
    15:00 +13°C° 0.1 mm 4 mps 748 mmHg 69%
    16:00 +13°C° 0.1 mm 4 mps 748 mmHg 72%
    17:00 +12°C° 0.1 mm 3 mps 748 mmHg 75%
    18:00 +13°C° 0.1 mm 2 mps 748 mmHg 79%
    19:00 +12°C° 0 mm 2 mps 748 mmHg 82%
    20:00 +12°C° 0 mm 2 mps 749 mmHg 86%
    21:00 +10°C° 0 mm 2 mps 749 mmHg 90%
    22:00 +9°C° 0 mm 3 mps 749 mmHg 91%
    23:00 +9°C° 0 mm 3 mps 748 mmHg 91%

    5 June, Friday

    Time Temperature Precipitation Wind Pressure Humidity
    00:00 +8°C° 0 mm 3 mps 748 mmHg 92%
    01:00 +8°C° 0 mm 3 mps 748 mmHg 92%
    02:00 +9°C° 0 mm 3 mps 748 mmHg 91%
    03:00 +9°C° 0 mm 3 mps 748 mmHg 90%
    04:00 +10°C° 0 mm 4 mps 748 mmHg 89%
    05:00 +10°C° 0 mm 4 mps 747 mmHg 88%
    06:00 +11°C° 0 mm 4 mps 747 mmHg 87%
    07:00 +10°C° 0 mm 5 mps 747 mmHg 86%
    08:00 +12°C° 0 mm 5 mps 747 mmHg 84%
    09:00 +12°C° 0 mm 5 mps 747 mmHg 83%
    10:00 +13°C° 0 mm 6 mps 747 mmHg 80%
    11:00 +14°C° 0 mm 6 mps 747 mmHg 78%
    12:00 +15°C° 0 mm 7 mps 746 mmHg 76%
    13:00 +15°C° 0.1 mm 8 mps 746 mmHg 75%
    14:00 +15°C° 0.1 mm 8 mps 746 mmHg 74%
    15:00 +15°C° 0.1 mm 8 mps 746 mmHg 73%
    16:00 +15°C° 0.1 mm 8 mps 746 mmHg 72%
    17:00 +15°C° 0.1 mm 7 mps 746 mmHg 71%
    18:00 +15°C° 0.1 mm 7 mps 746 mmHg 69%
    19:00 +13°C° 0 mm 6 mps 746 mmHg 73%
    20:00 +12°C° 0 mm 5 mps 747 mmHg 78%
    21:00 +10°C° 0 mm 4 mps 747 mmHg 82%
    22:00 +8°C° 0 mm 4 mps 747 mmHg 85%
    23:00 +7°C° 0 mm 4 mps 748 mmHg 87%

    6 June, Saturday

    Time Temperature Precipitation Wind Pressure Humidity
    00:00 +7°C° 0 mm 4 mps 748 mmHg 89%
    01:00 +7°C° 0 mm 4 mps 748 mmHg 88%
    02:00 +7°C° 0 mm 5 mps 748 mmHg 87%
    03:00 +7°C° 0 mm 5 mps 749 mmHg 86%
    04:00 +7°C° 0 mm 5 mps 749 mmHg 82%
    05:00 +8°C° 0 mm 5 mps 750 mmHg 78%
    06:00 +9°C° 0 mm 6 mps 750 mmHg 74%
    07:00 +10°C° 0 mm 6 mps 750 mmHg 69%
    08:00 +11°C° 0 mm 6 mps 751 mmHg 63%
    09:00 +13°C° 0 mm 5 mps 751 mmHg 57%
    10:00 +14°C° 0 mm 5 mps 751 mmHg 55%
    11:00 +15°C° 0 mm 5 mps 751 mmHg 54%
    12:00 +16°C° 0 mm 5 mps 752 mmHg 52%
    13:00 +16°C° 0.1 mm 6 mps 752 mmHg 53%
    14:00 +16°C° 0.1 mm 6 mps 752 mmHg 53%
    15:00 +15°C° 0.1 mm 6 mps 752 mmHg 53%
    16:00 +15°C° 0.1 mm 6 mps 752 mmHg 55%
    17:00 +14°C° 0.1 mm 6 mps 752 mmHg 57%
    18:00 +13°C° 0.1 mm 6 mps 752 mmHg 59%
    19:00 +10°C° 0 mm 5 mps 752 mmHg 67%
    20:00 +8°C° 0 mm 4 mps 753 mmHg 75%
    21:00 +7°C° 0 mm 3 mps 753 mmHg 83%
    22:00 +5°C° 0 mm 3 mps 753 mmHg 84%
    23:00 +4°C° 0 mm 3 mps 754 mmHg 86%
    Show more